Regional Weather Roundup
Issued by NWS

Home | Current Version | Previous Version | Text Only | Print | Product List | Glossary Off
Versions: 1 2 3 4 5 6 7 8 9 10 11 12 13 14 15 16 17 18 19 20 21 22 23 24 25 26 27 28 29 30 31 32 33 34 35 36 37 38 39 40 41 42 43 44 45 46 47 48 49 50

000
ASUS43 KLSX 020959
RWRMO

WEATHER SUMMARY FOR MISSOURI
NATIONAL WEATHER SERVICE SPRINGFIELD MO
500 AM CDT THU OCT 02 2014

NOTE: "FAIR" INDICATES FEW OR NO CLOUDS BELOW 12,000 FEET WITH NO
       SIGNIFICANT WEATHER AND/OR OBSTRUCTIONS TO VISIBILITY.
       CURRENT SKY AND/OR WEATHER CONDITIONS ARE NOT AVAILABLE FOR
       CHILLICOTHE AND FARMINGTON.

MOZ001>031-035>038-043-044-053-054-021100-
...NORTHERN AND WESTERN MISSOURI...

CITY           SKY/WX    TMP DP  RH WIND       PRES   REMARKS
KANSAS CTY INT CLOUDY    67  64  90 SE10      29.73R
KANSAS C DTWN  CLOUDY    68  64  87 E5        29.73R
LEE`S SUMMIT   CLOUDY    65  63  93 E8        29.76R
ST JOSEPH      CLOUDY    65  64  97 NE6       29.73R
CHILLICOTHE      N/A     65  63  93 SE6       29.79R
KIRKSVILLE     CLOUDY    64  63  96 SE8       29.81R

$$
MOZ066>068-077>081-088>096-101>105-021100-
...SOUTHWEST MISSOURI...

CITY           SKY/WX    TMP DP  RH WIND       PRES   REMARKS
SPRINGFIELD    CLOUDY    72  68  87 S14       29.79R
JOPLIN         TSTM      67  63  87 S8G30     29.78S VSB 3/4

$$
MOZ032>034-039>042-045>050-055>058-069>072-021100-
...CENTRAL MISSOURI...

CITY           SKY/WX    TMP DP  RH WIND       PRES   REMARKS
COLUMBIA       LGT RAIN  64  63  96 E12       29.83S
ROLLA          CLOUDY    70  66  87 E7        29.83R
SEDALIA        CLOUDY    67  64  90 SE9       29.77F
WHITEMAN AFB   CLOUDY    66  64  94 SE5       29.76R THUNDER
OSAGE BEACH    CLOUDY    66  63  88 NE8       29.82R

$$
MOZ051-052-059>065-021100-
...EAST CENTRAL MISSOURI...

CITY           SKY/WX    TMP DP  RH WIND       PRES   REMARKS
ST LOUIS INTL  LGT RAIN  67  64  90 E5        29.88F
SPIRIT OF STL  LGT RAIN  65  64  97 E7        29.85F
ST CHARLES     CLOUDY    66  65  96 SE6       29.86S

$$
MOZ072>076-082>087-097>100-106>115-021100-
...SOUTH CENTRAL AND SOUTHEAST MISSOURI...

CITY           SKY/WX    TMP DP  RH WIND       PRES   REMARKS
CAPE GIRARDEAU CLOUDY    73  62  68 S9        29.88S
FARMINGTON     MOCLDY    70  63  78 S8        29.89S
POPLAR BLUFF   CLEAR     66  62  87 CALM      29.86S
WEST PLAINS    CLEAR     69  66  90 S7        29.86S

$$


USA.gov is the U.S. government's official web portal to all federal, state and local government web resources and services.